Location: ????????
(38.4362°N, 22.8767°E)
Time: 13:34:19
(UTC+00:00)

BREEZE-M DEB (TANK) - Pass Details

Date: 23 April 2024
Orbit: 330 x 14642 km, 49.5° (Epoch: 16 May)

Event Time Altitude Azimuth Distance (km) Brightness Sun altitude
Exits shadow 00:36:05 62° 63° (ENE) 927 4.2 -30.7°
Drops below altitude 10° 00:44:28 10° 56° (NE) 4,620 8.5 -29.6°
Sets 00:51:24 0° 57° (ENE) 7,453 9.9 -28.8°
